Vertical_Velocity
3 1 0 -2 -2 -0 0 1 -0 -2 4 3 3 -1 -1 -1 1 0 -12 3 -4 -2 -1 -1 -2 -0 2 0 -1 -0 5 0 -2 -0 -5 1 -1 -2 -1 -2 -0 -1 -1 4 -1
-2 -1 -1 -1 -1 -1 1 -1 0 2 -1 1 -1 -1 3 3 -2 -9 8 2 0 1 -4 -1 -0 1 2 2 -1 1 1 -4 -3 -1 -1 -1 0 -1 2 0 1 1 1 -5 8
-1 -1 -1 0 -1 -3 -1 0 -2 -1 2 -1 -1 -1 -1 -0 -4 -4 2 1 -2 0 3 1 2 0 3 -0 -1 -1 -2 -2 -3 0 2 -1 1 -2 -0 0 -2 -1 -4 4 8
2 2 1 -0 -2 -0 -0 0 0 -0 -6 -2 -2 -1 -1 2 -13 -1 3 -1 -1 3 2 -1 4 5 2 0 0 3 -1 -1 -2 -0 1 -1 1 0 2 -7 3 -9 -2 -3 6
1 -3 -1 -1 -4 -3 -2 -2 -2 -4 -4 -1 -4 0 1 4 -29 5 -1 1 8 -0 -5 -2 2 -1 -0 -1 3 3 -2 1 -3 0 -2 6 -2 -3 -5 -1 -2 9 -10 -6 7
-3 -3 1 -1 -3 1 0 -4 -3 0 -0 1 6 7 16 10 6 -2 3 6 -1 1 -0 -1 -6 -6 -0 -1 1 -1 -1 -6 1 -5 1 4 -4 3 -9 6 1 -5 -8 -1 4
0 -0 -2 1 -5 -1 -3 3 2 -1 5 6 -1 -6 9 -44 -4 -2 1 5 6 -3 -2 2 -1 1 -0 1 -1 -3 5 -1 -0 -4 -2 3 7 -2 -5 3 1 -6 6 -10 2
2 -3 -2 -1 -3 -2 -3 -3 -1 2 -0 8 2 7 -11 -6 -3 -2 11 -1 6 15 2 6 9 4 7 1 0 1 3 6 -5 1 -5 7 -17 -8 1 7 1 3 -0 -5 -8
-3 -3 -3 -1 -2 -6 -5 -5 -4 -3 -3 1 1 5 -12 5 -8 12 3 -6 11 4 9 12 13 -1 5 5 3 3 -1 3 -3 -1 -0 4 -7 -7 2 1 1 -1 -4 2 3
-2 -2 -2 -5 -5 -5 -2 -6 -6 2 -4 -0 6 14 -4 -11 -3 1 6 7 8 3 13 23 5 2 5 5 -11 -4 1 0 -2 -3 4 2 -6 -4 1 2 -6 1 -0 -3 5
-0 -6 -3 -6 -4 -2 -8 -25 -23 2 2 -4 -2 -10 -1 1 3 -3 1 6 14 15 2 -2 9 -4 -10 -5 -3 2 2 -0 -3 -3 5 -4 -1 -6 -4 6 5 -0 -3 -2 0
-1 1 -2 -2 -10 4 4 -2 8 11 -13 -20 -10 -4 1 13 4 4 4 -6 7 -2 8 8 -4 -9 0 1 3 3 2 -5 -5 -1 8 -1 -7 -5 -0 -7 -5 -2 1 -3 1
-6 -5 2 -1 -18 -9 2 1 2 4 8 -15 -6 -1 -8 11 -17 -16 11 1 -2 8 -0 -3 -8 3 5 2 7 -2 1 -1 -2 -1 -3 3 -3 2 -5 3 4 -2 -2 1 -7
3 -6 1 4 -11 -7 -4 -4 4 5 8 -17 -1 -3 -0 0 -4 0 2 -12 6 -9 -1 -5 -11 -1 4 0 3 6 -4 2 2 7 -2 2 -9 -0 -3 -2 2 -1 1 -0 -3
2 -13 5 3 5 -1 -5 2 2 5 5 -24 -2 5 3 -4 4 -1 3 22 -3 -3 14 -18 1 4 4 -17 3 -17 1 -2 0 2 7 0 10 -14 1 2 -2 -3 -3 -4 -4
0 -5 5 0 -3 2 -2 2 4 8 -13 -7 2 1 -5 -1 -4 1 -0 19 -1 3 2 -12 -1 2 -20 -3 -2 -3 4 -1 1 3 10 -9 7 -16 -3 -18 -2 -1 -2 -1 0
1 -6 -4 7 -2 -0 -4 -7 1 4 -11 -4 -0 -1 2 -5 -1 1 -0 6 -2 15 4 2 -2 -0 -3 7 6 7 1 1 4 6 -7 -0 12 -31 -5 -4 -7 -5 -4 -1 0
-2 -8 -6 12 4 2 -5 -7 6 -5 3 -3 1 -4 4 1 -4 -1 2 2 3 4 1 -0 6 1 -3 -11 -12 -4 -4 -4 -5 -2 -3 0 -4 -34 -7 -4 -1 0 -2 3 3
-2 -17 -2 0 -1 -1 -3 -4 2 2 5 2 -15 0 -3 -7 6 4 -0 -2 -5 -4 -1 -1 -3 0 2 -2 -6 -2 6 -23 2 -1 2 -3 -9 -10 0 -1 0 -1 3 -3 -3
-7 -14 -2 0 5 1 -6 -3 1 0 1 -0 3 5 2 -1 -5 -0 -0 6 -2 5 2 -4 0 -3 -2 1 2 -8 -4 7 4 2 0 -2 -2 -10 -0 -3 -2 1 -2 -3 2
-7 -6 1 -2 -0 1 -4 -3 -1 -2 3 4 1 1 0 2 4 -1 -3 3 -0 -7 3 -0 1 -1 -3 -0 -7 8 7 5 -4 1 -2 -1 -8 -5 -3 0 -0 -1 -3 2 -2
-4 -1 2 2 -5 0 -0 -1 2 -3 0 -2 3 1 2 0 0 0 1 4 1 7 0 -1 1 -1 -9 -2 -4 -7 -9 -2 4 2 -2 -3 -15 0 -0 -0 1 -1 1 2 -4
1 -5 0 1 -3 -1 -3 -1 0 0 -0 -1 -1 2 -0 2 -1 2 -0 -0 0 1 2 -2 -3 3 5 -3 0 1 -4 -2 -0 2 -2 0 -11 0 -0 -1 -1 0 -2 -1 6
3 -2 -4 1 1 -3 -0 -3 -1 1 -2 1 -0 1 -1 -1 -1 -2 -3 -4 -3 2 1 -2 -0 8 7 2 3 4 2 0 1 7 -7 -2 -4 -4 -1 0 -1 -1 -0 2 5
1 -4 -4 -4 -2 0 0 1 -0 -2 0 0 -3 1 -0 1 -1 -1 -3 -12 -6 1 -1 -3 1 1 -3 0 2 1 1 -0 3 -10 3 -13 -1 -5 -0 0 -0 0 0 2 2
2 4 10 1 -1 2 -1 -2 1 -6 0 -3 4 -2 2 1 1 -2 8 2 1 -5 -0 -1 -4 1 -5 -3 1 -1 -1 0 -0 -1 3 3 -5 -1 -1 -1 -0 -2 1 -0 -1
-0 -6 9 -7 -0 1 -3 -4 -4 2 -6 0 2 3 2 -6 3 -2 1 -1 -0 7 -1 1 1 0 -4 1 -2 -6 -5 -2 -2 -0 -6 1 -20 -0 0 1 -1 -3 0 -2 0
Height
1534 1532 1529 1526 1523 1520 1517 1516 1513 1510 1507 1505 1503 1502 1499 1496 1494 1492 1488 1490 1490 1490 1491 1493 1496 1498 1500 1501 1503 1503 1502 1499 1493 1491 1487 1486 1488 1489 1488 1488 1491 1493 1496 1497 1496
1531 1528 1526 1523 1519 1516 1513 1511 1509 1507 1504 1501 1500 1498 1496 1493 1489 1483 1483 1480 1483 1487 1488 1491 1494 1497 1499 1499 1501 1501 1500 1492 1485 1483 1483 1484 1485 1485 1486 1485 1489 1490 1492 1492 1494
1529 1526 1523 1519 1515 1512 1509 1505 1503 1502 1500 1498 1496 1494 1493 1490 1487 1476 1476 1476 1477 1482 1486 1489 1493 1495 1498 1497 1496 1495 1490 1486 1482 1482 1482 1483 1483 1483 1483 1483 1482 1485 1490 1495 1495
1529 1525 1521 1517 1514 1510 1505 1502 1499 1496 1494 1493 1493 1492 1489 1490 1492 1476 1475 1476 1477 1480 1482 1486 1489 1492 1492 1492 1490 1491 1484 1483 1481 1480 1482 1482 1481 1478 1477 1475 1477 1475 1486 1491 1492
1527 1523 1519 1515 1511 1507 1502 1498 1494 1492 1489 1487 1487 1488 1487 1485 1471 1476 1476 1476 1476 1475 1478 1481 1483 1486 1485 1486 1487 1484 1480 1477 1478 1479 1480 1480 1479 1478 1473 1474 1473 1472 1482 1487 1489
1525 1521 1517 1512 1508 1503 1498 1494 1490 1487 1484 1482 1482 1483 1482 1476 1467 1468 1468 1470 1472 1473 1472 1476 1479 1480 1480 1480 1483 1476 1475 1473 1474 1475 1476 1477 1475 1473 1463 1468 1470 1472 1474 1484 1487
1524 1519 1515 1510 1505 1499 1493 1489 1485 1482 1479 1475 1474 1477 1472 1457 1461 1463 1463 1463 1466 1467 1471 1471 1475 1478 1476 1477 1475 1474 1475 1472 1470 1469 1472 1472 1465 1461 1465 1466 1466 1470 1472 1478 1485
1522 1517 1511 1506 1500 1494 1487 1483 1478 1474 1470 1469 1468 1471 1455 1445 1452 1452 1458 1458 1461 1464 1467 1471 1473 1474 1473 1472 1470 1473 1473 1470 1460 1466 1467 1470 1455 1458 1461 1465 1463 1465 1469 1468 1482
1520 1514 1509 1502 1496 1489 1483 1477 1473 1468 1465 1463 1467 1467 1450 1443 1441 1437 1445 1448 1455 1458 1462 1466 1468 1468 1471 1472 1471 1467 1460 1460 1460 1459 1461 1463 1454 1452 1455 1461 1462 1462 1466 1465 1475
1518 1513 1507 1500 1493 1486 1479 1471 1466 1463 1461 1462 1463 1468 1448 1439 1438 1436 1437 1444 1450 1453 1458 1461 1461 1459 1460 1462 1453 1452 1460 1458 1457 1454 1457 1458 1452 1448 1451 1453 1455 1458 1462 1465 1465
1515 1510 1504 1498 1492 1484 1476 1469 1470 1465 1462 1457 1452 1443 1437 1435 1434 1434 1436 1439 1447 1449 1446 1451 1451 1440 1446 1449 1450 1450 1454 1453 1453 1451 1453 1450 1448 1443 1446 1448 1447 1451 1456 1458 1459
1512 1507 1502 1497 1490 1485 1480 1477 1480 1477 1451 1443 1440 1433 1427 1433 1430 1430 1432 1438 1441 1435 1442 1447 1430 1437 1441 1446 1449 1450 1449 1450 1451 1449 1452 1446 1441 1438 1438 1438 1439 1440 1447 1453 1457
1511 1506 1500 1494 1489 1486 1481 1479 1477 1478 1463 1426 1426 1422 1419 1422 1417 1423 1429 1428 1430 1431 1430 1429 1428 1434 1437 1439 1444 1445 1443 1450 1452 1452 1451 1445 1434 1430 1424 1431 1432 1432 1437 1443 1449
1509 1504 1498 1492 1488 1484 1482 1478 1476 1474 1466 1429 1420 1415 1413 1418 1416 1408 1417 1422 1424 1424 1429 1427 1426 1431 1434 1431 1438 1442 1442 1443 1446 1450 1446 1444 1428 1420 1417 1420 1423 1424 1428 1431 1438
1506 1502 1498 1492 1487 1482 1480 1475 1471 1472 1477 1423 1416 1416 1413 1415 1411 1407 1408 1417 1414 1417 1424 1415 1420 1426 1430 1425 1435 1433 1439 1442 1444 1441 1445 1439 1436 1410 1410 1414 1407 1404 1410 1417 1424
1502 1498 1494 1489 1485 1481 1477 1473 1470 1469 1458 1425 1418 1419 1421 1417 1411 1409 1409 1414 1414 1416 1415 1415 1418 1421 1419 1427 1431 1433 1440 1440 1438 1439 1429 1425 1435 1394 1401 1386 1393 1396 1401 1407 1414
1500 1496 1491 1487 1483 1479 1475 1473 1475 1462 1436 1436 1436 1430 1424 1417 1409 1408 1410 1413 1411 1417 1412 1416 1416 1416 1416 1426 1428 1432 1441 1443 1441 1433 1413 1413 1420 1389 1377 1375 1379 1385 1388 1397 1406
1496 1492 1487 1482 1479 1479 1476 1474 1475 1445 1454 1450 1445 1428 1420 1415 1407 1403 1406 1407 1408 1406 1408 1408 1412 1409 1409 1408 1420 1425 1426 1437 1436 1424 1415 1410 1393 1376 1369 1372 1375 1377 1381 1388 1393
1492 1489 1484 1481 1479 1480 1477 1494 1464 1463 1467 1461 1445 1431 1424 1420 1421 1412 1401 1397 1397 1400 1404 1406 1403 1394 1395 1400 1408 1419 1419 1414 1423 1422 1418 1402 1390 1371 1367 1366 1366 1369 1374 1376 1381
1490 1485 1479 1479 1480 1477 1480 1474 1468 1467 1464 1458 1458 1450 1445 1439 1431 1427 1407 1415 1411 1407 1396 1394 1398 1391 1389 1396 1400 1399 1406 1421 1421 1414 1400 1396 1396 1372 1365 1360 1361 1364 1365 1368 1372
1486 1482 1480 1477 1477 1475 1485 1479 1471 1466 1465 1463 1455 1451 1447 1447 1442 1432 1416 1422 1421 1415 1405 1395 1394 1390 1389 1391 1395 1402 1401 1402 1406 1406 1395 1391 1385 1368 1358 1360 1362 1361 1360 1359 1359
1489 1486 1477 1475 1476 1477 1477 1474 1470 1465 1462 1461 1456 1452 1450 1449 1446 1436 1435 1435 1429 1427 1418 1405 1385 1385 1386 1379 1380 1381 1385 1391 1393 1390 1390 1404 1380 1363 1363 1359 1357 1357 1355 1352 1359
1489 1484 1476 1474 1481 1477 1472 1470 1469 1465 1463 1460 1457 1452 1449 1447 1450 1439 1436 1432 1431 1425 1423 1412 1395 1379 1384 1383 1381 1381 1380 1382 1385 1392 1381 1383 1376 1363 1362 1360 1357 1353 1350 1348 1351
1489 1485 1478 1473 1472 1474 1477 1468 1465 1462 1461 1458 1455 1452 1451 1449 1445 1442 1435 1434 1434 1427 1421 1416 1400 1396 1390 1387 1390 1378 1376 1384 1382 1380 1374 1374 1372 1359 1363 1361 1359 1358 1353 1352 1351
1485 1480 1477 1476 1471 1471 1472 1469 1465 1462 1458 1456 1454 1453 1458 1455 1448 1440 1436 1425 1428 1425 1422 1422 1418 1408 1402 1393 1383 1381 1371 1368 1374 1366 1373 1362 1368 1365 1361 1358 1360 1365 1361 1360 1361
1485 1481 1474 1471 1469 1469 1468 1466 1461 1457 1459 1456 1453 1451 1452 1453 1449 1446 1442 1437 1432 1423 1429 1427 1422 1410 1400 1382 1379 1376 1369 1364 1362 1364 1364 1361 1363 1363 1362 1362 1366 1370 1367 1366 1369
1482 1478 1477 1468 1466 1467 1463 1459 1457 1456 1451 1450 1450 1450 1448 1445 1443 1440 1438 1435 1429 1428 1425 1426 1420 1413 1400 1383 1377 1374 1362 1360 1359 1357 1356 1363 1352 1355 1357 1359 1364 1363 1365 1362 1367